Location: Arroyo Grande
(40.2671°N, 4.2512°W)
Time: 16:31:18
(UTC+00:00)

Cosmos 1726 Rocket - Pass Details

Date: 03 February 2023
Orbit: 602 x 627 km, 82.5° (Epoch: 21 March)

Event Time Altitude Azimuth Distance (km) Brightness Sun altitude
Rises 19:03:03 0° 350° (N) 2,862 7.0 -16.6°
Reaches altitude 10° 19:05:16 10° 348° (NNW) 1,954 6.2 -17.0°
Maximum altitude 19:09:34 72° 265° (W) 638 3.7 -17.8°
Drops below altitude 10° 19:13:51 10° 181° (S) 1,944 6.2 -18.6°
Sets 19:16:03 0° 179° (S) 2,845 7.0 -19.0°
